Weather Roundup
Issued by NWS Chicago, IL

Home | Current Version | Previous Version | Graphics & Text | Print | Product List | Glossary On
Versions: 1 2 3 4 5 6 7 8 9 10 11 12 13 14 15 16 17 18 19 20 21 22 23 24 25 26 27 28 29 30 31 32 33 34 35 36 37 38 39 40 41 42 43 44 45 46 47 48 49 50
000
NZUS59 KLOT 250308
HRRLOT

CHICAGO AREA WEATHER ROUNDUP
NATIONAL WEATHER SERVICE CHICAGO/ROMEOVILLE IL
1000 PM CDT SUN JUL 24 2016

NOTE: "FAIR" INDICATES FEW OR NO CLOUDS BELOW 12,000 FEET WITH NO
SIGNIFICANT WEATHER AND/OR OBSTRUCTIONS TO VISIBILITY.

* THESE STATIONS ARE NOT UNDER NWS QUALITY CONTROL. THEY ALSO MAY NOT
  REPORT WEATHER SUCH AS PRECIPITATION OR FOG.

ILZ005-006-012>014-019>023-250400-
NORTHEAST ILLINOIS

CITY           SKY/WX    TMP DP  RH WIND       PRES   REMARKS
OHARE          CLOUDY    78  73  84 W3        29.89R HX  81
MIDWAY         CLOUDY    76  69  79 S9        29.89R
AURORA         CLOUDY    76  70  82 S6        29.91R
LANSING*       CLOUDY    73  66  81 SW8       29.92R THUNDER
JOLIET*        CLOUDY    77  70  78 S8        29.92R
WAUKEGAN       CLOUDY    80  69  69 NW3       29.86S HX  83
DUPAGE AIRPORT CLOUDY    78  68  71 SW10      29.89R HX  80
WHEELING       CLOUDY    77  71  82 E3        29.89S
KANKAKEE*      TSTM      71  67  88 S8        29.96
MORRIS*        CLOUDY    74  67  79 S6        29.92R
LEWIS AIRPORT* CLOUDY    76  65  68 S12       29.92R
NORTHERLY ISL    N/A     79  64  60 W8          N/A  HX  81
$$

WIZ051-052-058>065-066-070>072-250400-
SOUTHEAST WISCONSIN

CITY           SKY/WX    TMP DP  RH WIND       PRES   REMARKS
MILWAUKEE      CLOUDY    86  70  58 NW7       29.86R HX  90
KENOSHA*       CLOUDY    83  76  79 NW8       29.89S HX  91
RACINE*        CLOUDY    83  75  77 W5        29.89R HX  90
BURLINGTON     MOCLDY    79  70  73 NW3       29.88F HX  82
WAUKESHA       CLOUDY    77  64  65 W6        29.89F
$$

INZ001>003-010>013-019-020-250400-
NORTHWEST INDIANA

CITY           SKY/WX    TMP DP  RH WIND       PRES   REMARKS
GARY*          MOCLDY    70 N/A N/A SW8       29.91R
MICHIGAN CITY* NOT AVBL
RENSSELAER*    NOT AVBL
VALPARAISO     LGT RAIN  73  66  78 SW8       29.91F
$$

LMZ740>746-250400-
SOUTHERN LAKE MICHIGAN

STATION/POSITION TIME  SKY/WX   TEMP WIND        PRES    VSBY
                                AIR  DIR/SP/G
                 (UTC)          (F)  (DEG/KT/KT) (MB)    (MI)
HARRISON CRIB    0200            80  230/  8/  9   N/A
BURNHAM HARBOR   0300            79  250/  6/  9   N/A
CALUMET HARBOR   0200            73                N/A
BURNS HARBOR     0221            75  200/ 15/ 18 1012.2F
MICHIGAN CITY    0200            75  250/ 13/ 14   N/A
$$

ABBREVIATIONS USED IN REMARKS
   TC - TEMPERATURE IN CELSIUS
  WCI - WIND CHILL INDEX
   HX - HEAT INDEX
  VSB - VISIBILITY
$$



USA.gov is the U.S. government's official web portal to all federal, state and local government web resources and services.